Time,TemperatureF,DewpointF,PressureIn,WindDirection,WindDirectionDegrees,WindSpeedMPH,WindSpeedGustMPH,Humidity,HourlyPrecipIn,Conditions,Clouds,dailyrainin,SoftwareType,DateUTC
2013-03-28 00:00:00,38.3,29.7,30.31,NNE,29,1.0,3.0,71,0.00,,---,0.00,VWS V14.01,2013-03-28 05:00:00,
2013-03-28 00:05:00,38.1,29.9,30.31,NNE,31,0.0,2.0,72,0.00,,---,0.00,VWS V14.01,2013-03-28 05:05:00,
2013-03-28 00:10:00,38.0,29.8,30.31,NNE,29,2.0,2.0,72,0.00,,---,0.00,VWS V14.01,2013-03-28 05:10:00,
2013-03-28 00:15:00,38.1,29.5,30.31,NNE,31,1.0,2.0,71,0.00,,---,0.00,VWS V14.01,2013-03-28 05:15:00,
2013-03-28 00:20:00,38.1,29.5,30.31,North,355,2.0,2.0,71,0.00,,---,0.00,VWS V14.01,2013-03-28 05:20:00,
2013-03-28 00:25:00,38.1,29.5,30.31,NNE,23,0.0,3.0,71,0.00,,---,0.00,VWS V14.01,2013-03-28 05:25:00,
2013-03-28 00:30:00,37.9,29.4,30.31,NE,41,1.0,3.0,71,0.00,,---,0.00,VWS V14.01,2013-03-28 05:30:00,
2013-03-28 00:35:00,37.7,29.2,30.30,ENE,63,1.0,3.0,71,0.00,,---,0.00,VWS V14.01,2013-03-28 05:35:00,
2013-03-28 00:40:00,37.7,29.2,30.30,East,94,2.0,5.0,71,0.00,,---,0.00,VWS V14.01,2013-03-28 05:40:00,
2013-03-28 00:45:00,37.9,29.0,30.31,North,351,2.0,5.0,70,0.00,,---,0.00,VWS V14.01,2013-03-28 05:45:00,
2013-03-28 00:50:00,37.9,29.0,30.31,ENE,57,3.0,5.0,70,0.00,,---,0.00,VWS V14.01,2013-03-28 05:50:00,
2013-03-28 00:55:00,37.9,29.0,30.31,NNE,26,3.0,5.0,70,0.00,,---,0.00,VWS V14.01,2013-03-28 05:55:00,
2013-03-28 01:00:00,37.9,29.0,30.30,NNW,347,3.0,8.0,70,0.00,,---,0.00,VWS V14.01,2013-03-28 06:00:00,
2013-03-28 01:05:00,37.8,28.9,30.30,North,4,3.0,4.0,70,0.00,,---,0.00,VWS V14.01,2013-03-28 06:05:00,
2013-03-28 01:10:00,37.8,28.9,30.30,North,355,4.0,5.0,70,0.00,,---,0.00,VWS V14.01,2013-03-28 06:10:00,
2013-03-28 01:15:00,37.7,28.8,30.30,North,4,2.0,5.0,70,0.00,,---,0.00,VWS V14.01,2013-03-28 06:15:00,
2013-03-28 01:20:00,37.7,28.8,30.30,ENE,76,1.0,5.0,70,0.00,,---,0.00,VWS V14.01,2013-03-28 06:20:00,
2013-03-28 01:25:00,37.5,29.0,30.30,NE,34,2.0,5.0,71,0.00,,---,0.00,VWS V14.01,2013-03-28 06:25:00,
2013-03-28 01:30:00,37.4,28.9,30.30,NE,55,1.0,6.0,71,0.00,,---,0.00,VWS V14.01,2013-03-28 06:30:00,
2013-03-28 01:35:00,37.3,29.1,30.30,NNE,29,5.0,5.0,72,0.00,,---,0.00,VWS V14.01,2013-03-28 06:35:00,
2013-03-28 01:40:00,37.2,29.0,30.31,East,81,0.0,5.0,72,0.00,,---,0.00,VWS V14.01,2013-03-28 06:40:00,
2013-03-28 01:45:00,37.1,29.3,30.31,NE,52,2.0,6.0,73,0.00,,---,0.00,VWS V14.01,2013-03-28 06:45:00,
2013-03-28 01:50:00,37.1,29.6,30.31,ENE,66,3.0,6.0,74,0.00,,---,0.00,VWS V14.01,2013-03-28 06:50:00,
2013-03-28 01:55:00,37.1,29.6,30.31,North,7,3.0,6.0,74,0.00,,---,0.00,VWS V14.01,2013-03-28 06:55:00,
2013-03-28 02:00:00,37.0,29.5,30.31,East,83,2.0,6.0,74,0.00,,---,0.00,VWS V14.01,2013-03-28 07:00:00,
2013-03-28 02:05:00,36.9,29.7,30.31,East,87,4.0,5.0,75,0.00,,---,0.00,VWS V14.01,2013-03-28 07:05:00,
2013-03-28 02:10:00,36.8,30.0,30.31,ENE,61,1.0,7.0,76,0.00,,---,0.00,VWS V14.01,2013-03-28 07:10:00,
2013-03-28 02:15:00,36.9,30.0,30.31,NNE,18,4.0,7.0,76,0.00,,---,0.00,VWS V14.01,2013-03-28 07:15:00,
2013-03-28 02:20:00,37.0,30.1,30.31,East,84,1.0,8.0,76,0.00,,---,0.00,VWS V14.01,2013-03-28 07:20:00,
2013-03-28 02:25:00,37.0,30.1,30.31,East,85,0.0,8.0,76,0.00,,---,0.00,VWS V14.01,2013-03-28 07:25:00,
2013-03-28 02:30:00,37.0,30.1,30.31,NE,55,3.0,9.0,76,0.00,,---,0.00,VWS V14.01,2013-03-28 07:30:00,
2013-03-28 02:35:00,37.1,30.2,30.31,ENE,68,1.0,5.0,76,0.00,,---,0.00,VWS V14.01,2013-03-28 07:35:00,
2013-03-28 02:40:00,37.0,29.8,30.31,East,90,0.0,6.0,75,0.00,,---,0.00,VWS V14.01,2013-03-28 07:40:00,
2013-03-28 02:45:00,36.9,30.0,30.31,NNE,29,5.0,7.0,76,0.00,,---,0.00,VWS V14.01,2013-03-28 07:45:00,
2013-03-28 02:50:00,37.0,30.1,30.31,East,88,0.0,7.0,76,0.00,,---,0.00,VWS V14.01,2013-03-28 07:50:00,
2013-03-28 02:55:00,36.9,30.0,30.31,East,83,1.0,7.0,76,0.00,,---,0.00,VWS V14.01,2013-03-28 07:55:00,
2013-03-28 03:00:00,36.8,30.0,30.31,ESE,123,1.0,7.0,76,0.00,,---,0.00,VWS V14.01,2013-03-28 08:00:00,
2013-03-28 03:05:00,36.6,29.8,30.31,East,85,1.0,3.0,76,0.00,,---,0.00,VWS V14.01,2013-03-28 08:05:00,
2013-03-28 03:10:00,36.4,29.6,30.30,NE,53,3.0,3.0,76,0.00,,---,0.00,VWS V14.01,2013-03-28 08:10:00,
2013-03-28 03:15:00,36.2,29.7,30.30,East,97,2.0,4.0,77,0.00,,---,0.00,VWS V14.01,2013-03-28 08:15:00,
2013-03-28 03:20:00,35.9,29.4,30.30,East,82,0.0,4.0,77,0.00,,---,0.00,VWS V14.01,2013-03-28 08:20:00,
2013-03-28 03:25:00,35.7,29.5,30.30,East,80,1.0,4.0,78,0.00,,---,0.00,VWS V14.01,2013-03-28 08:25:00,
2013-03-28 03:30:00,35.6,29.4,30.30,East,84,2.0,4.0,78,0.00,,---,0.00,VWS V14.01,2013-03-28 08:30:00,
2013-03-28 03:35:00,35.5,29.3,30.30,ENE,77,0.0,1.0,78,0.00,,---,0.00,VWS V14.01,2013-03-28 08:35:00,
2013-03-28 03:40:00,35.5,29.3,30.30,East,88,1.0,5.0,78,0.00,,---,0.00,VWS V14.01,2013-03-28 08:40:00,
2013-03-28 03:45:00,35.3,29.1,30.30,East,90,1.0,5.0,78,0.00,,---,0.00,VWS V14.01,2013-03-28 08:45:00,
2013-03-28 03:50:00,35.2,29.0,30.30,East,88,1.0,5.0,78,0.00,,---,0.00,VWS V14.01,2013-03-28 08:50:00,
2013-03-28 03:55:00,35.0,29.2,30.30,East,100,1.0,5.0,79,0.00,,---,0.00,VWS V14.01,2013-03-28 08:55:00,
2013-03-28 04:00:00,34.8,29.0,30.30,East,101,1.0,5.0,79,0.00,,---,0.00,VWS V14.01,2013-03-28 09:00:00,
2013-03-28 04:05:00,34.6,29.1,30.30,East,94,1.0,2.0,80,0.00,,---,0.00,VWS V14.01,2013-03-28 09:05:00,
2013-03-28 04:10:00,34.4,28.9,30.30,East,94,0.0,2.0,80,0.00,,---,0.00,VWS V14.01,2013-03-28 09:10:00,
2013-03-28 04:15:00,34.2,28.7,30.30,East,94,0.0,2.0,80,0.00,,---,0.00,VWS V14.01,2013-03-28 09:15:00,
2013-03-28 04:20:00,34.1,28.9,30.30,East,94,1.0,3.0,81,0.00,,---,0.00,VWS V14.01,2013-03-28 09:20:00,
2013-03-28 04:25:00,34.0,28.8,30.30,East,94,0.0,3.0,81,0.00,,---,0.00,VWS V14.01,2013-03-28 09:25:00,
2013-03-28 04:30:00,33.9,28.7,30.30,East,94,0.0,3.0,81,0.00,,---,0.00,VWS V14.01,2013-03-28 09:30:00,
2013-03-28 04:35:00,33.9,28.7,30.30,East,92,1.0,2.0,81,0.00,,---,0.00,VWS V14.01,2013-03-28 09:35:00,
2013-03-28 04:40:00,33.9,28.7,30.29,East,98,1.0,3.0,81,0.00,,---,0.00,VWS V14.01,2013-03-28 09:40:00,
2013-03-28 04:45:00,33.8,28.6,30.30,East,98,1.0,3.0,81,0.00,,---,0.00,VWS V14.01,2013-03-28 09:45:00,
2013-03-28 04:50:00,33.7,28.5,30.29,East,98,0.0,3.0,81,0.00,,---,0.00,VWS V14.01,2013-03-28 09:50:00,
2013-03-28 04:55:00,33.5,28.6,30.29,East,98,0.0,3.0,82,0.00,,---,0.00,VWS V14.01,2013-03-28 09:55:00,
2013-03-28 05:00:00,33.2,28.3,30.29,East,98,0.0,3.0,82,0.00,,---,0.00,VWS V14.01,2013-03-28 10:00:00,
2013-03-28 05:05:00,33.0,28.1,30.29,East,97,1.0,1.0,82,0.00,,---,0.00,VWS V14.01,2013-03-28 10:05:00,
2013-03-28 05:10:00,32.9,28.3,30.29,East,96,0.0,2.0,83,0.00,,---,0.00,VWS V14.01,2013-03-28 10:10:00,
2013-03-28 05:15:00,33.0,28.4,30.29,East,97,0.0,2.0,83,0.00,,---,0.00,VWS V14.01,2013-03-28 10:15:00,
2013-03-28 05:20:00,32.9,28.3,30.29,East,96,0.0,2.0,83,0.00,,---,0.00,VWS V14.01,2013-03-28 10:20:00,
2013-03-28 05:25:00,32.8,28.2,30.29,East,97,0.0,2.0,83,0.00,,---,0.00,VWS V14.01,2013-03-28 10:25:00,
2013-03-28 05:30:00,32.5,27.6,30.29,East,98,0.0,2.0,82,0.00,,---,0.00,VWS V14.01,2013-03-28 10:30:00,
2013-03-28 05:35:00,32.2,27.9,30.30,East,97,0.0,1.0,84,0.00,,---,0.00,VWS V14.01,2013-03-28 10:35:00,
2013-03-28 05:40:00,32.1,27.8,30.29,East,97,0.0,1.0,84,0.00,,---,0.00,VWS V14.01,2013-03-28 10:40:00,
2013-03-28 05:45:00,32.0,27.7,30.29,East,98,0.0,1.0,84,0.00,,---,0.00,VWS V14.01,2013-03-28 10:45:00,
2013-03-28 05:50:00,31.9,27.9,30.29,East,98,0.0,1.0,85,0.00,,---,0.00,VWS V14.01,2013-03-28 10:50:00,
2013-03-28 05:55:00,31.9,27.9,30.29,East,97,0.0,1.0,85,0.00,,---,0.00,VWS V14.01,2013-03-28 10:55:00,
2013-03-28 06:00:00,31.8,27.8,30.29,East,96,0.0,1.0,85,0.00,,---,0.00,VWS V14.01,2013-03-28 11:00:00,
2013-03-28 06:04:00,31.6,27.6,30.29,East,97,0.0,0.0,85,0.00,,---,0.00,VWS V14.01,2013-03-28 11:04:00,
2013-03-28 06:09:00,31.5,27.8,30.29,East,89,1.0,3.0,86,0.00,,---,0.00,VWS V14.01,2013-03-28 11:09:00,
2013-03-28 06:14:00,31.5,27.8,30.29,East,90,0.0,3.0,86,0.00,,---,0.00,VWS V14.01,2013-03-28 11:14:00,
2013-03-28 06:19:00,31.4,27.7,30.28,East,91,0.0,3.0,86,0.00,,---,0.00,VWS V14.01,2013-03-28 11:19:00,
2013-03-28 06:24:00,31.4,27.7,30.28,East,91,0.0,3.0,86,0.00,,---,0.00,VWS V14.01,2013-03-28 11:24:00,
2013-03-28 06:29:00,31.5,27.8,30.28,East,91,0.0,3.0,86,0.00,,---,0.00,VWS V14.01,2013-03-28 11:29:00,
2013-03-28 06:34:00,31.4,27.7,30.27,East,90,0.0,1.0,86,0.00,,---,0.00,VWS V14.01,2013-03-28 11:34:00,
2013-03-28 06:39:00,31.4,27.7,30.27,East,90,0.0,1.0,86,0.00,,---,0.00,VWS V14.01,2013-03-28 11:39:00,
2013-03-28 06:44:00,31.3,27.6,30.27,East,89,1.0,1.0,86,0.00,,---,0.00,VWS V14.01,2013-03-28 11:44:00,
2013-03-28 06:49:00,31.2,27.5,30.27,East,91,0.0,1.0,86,0.00,,---,0.00,VWS V14.01,2013-03-28 11:49:00,
2013-03-28 06:54:00,31.0,27.3,30.28,East,91,0.0,1.0,86,0.00,,---,0.00,VWS V14.01,2013-03-28 11:54:00,
2013-03-28 06:59:00,30.9,27.5,30.28,East,91,0.0,1.0,87,0.00,,---,0.00,VWS V14.01,2013-03-28 11:59:00,
2013-03-28 07:04:00,31.0,27.6,30.29,East,92,0.0,0.0,87,0.00,,---,0.00,VWS V14.01,2013-03-28 12:04:00,
2013-03-28 07:09:00,30.9,27.5,30.28,East,92,0.0,0.0,87,0.00,,---,0.00,VWS V14.01,2013-03-28 12:09:00,
2013-03-28 07:14:00,30.7,27.3,30.28,East,92,0.0,0.0,87,0.00,,---,0.00,VWS V14.01,2013-03-28 12:14:00,
2013-03-28 07:19:00,30.7,27.6,30.28,East,92,0.0,0.0,88,0.00,,---,0.00,VWS V14.01,2013-03-28 12:19:00,
2013-03-28 07:24:00,30.8,27.7,30.28,East,92,0.0,0.0,88,0.00,,---,0.00,VWS V14.01,2013-03-28 12:24:00,
2013-03-28 07:29:00,30.8,27.7,30.29,East,92,0.0,0.0,88,0.00,,---,0.00,VWS V14.01,2013-03-28 12:29:00,
2013-03-28 07:34:00,31.0,27.9,30.29,NE,42,0.0,0.0,88,0.00,,---,0.00,VWS V14.01,2013-03-28 12:34:00,
2013-03-28 07:39:00,31.2,28.1,30.29,NE,45,0.0,0.0,88,0.00,,---,0.00,VWS V14.01,2013-03-28 12:39:00,
2013-03-28 07:44:00,31.5,28.1,30.29,ENE,59,0.0,0.0,87,0.00,,---,0.00,VWS V14.01,2013-03-28 12:44:00,
2013-03-28 07:49:00,31.8,28.4,30.29,ENE,64,0.0,0.0,87,0.00,,---,0.00,VWS V14.01,2013-03-28 12:49:00,
2013-03-28 07:54:00,32.0,28.3,30.29,ENE,63,0.0,0.0,86,0.00,,---,0.00,VWS V14.01,2013-03-28 12:54:00,
2013-03-28 07:59:00,32.3,28.6,30.28,ENE,62,0.0,0.0,86,0.00,,---,0.00,VWS V14.01,2013-03-28 12:59:00,
2013-03-28 08:04:00,32.8,28.8,30.29,East,84,0.0,0.0,85,0.00,,---,0.00,VWS V14.01,2013-03-28 13:04:00,
2013-03-28 08:09:00,33.4,29.1,30.29,East,92,0.0,0.0,84,0.00,,---,0.00,VWS V14.01,2013-03-28 13:09:00,
2013-03-28 08:14:00,34.2,29.6,30.29,ENE,72,0.0,0.0,83,0.00,,---,0.00,VWS V14.01,2013-03-28 13:14:00,
2013-03-28 08:19:00,34.6,29.4,30.29,East,87,0.0,0.0,81,0.00,,---,0.00,VWS V14.01,2013-03-28 13:19:00,
2013-03-28 08:24:00,35.1,29.9,30.29,East,87,0.0,0.0,81,0.00,,---,0.00,VWS V14.01,2013-03-28 13:24:00,
2013-03-28 08:29:00,35.7,30.1,30.29,NNE,14,0.0,0.0,80,0.00,,---,0.00,VWS V14.01,2013-03-28 13:29:00,
2013-03-28 08:34:00,36.1,30.2,30.30,NE,38,0.0,0.0,79,0.00,,---,0.00,VWS V14.01,2013-03-28 13:34:00,
2013-03-28 08:39:00,36.9,30.7,30.30,ENE,74,0.0,0.0,78,0.00,,---,0.00,VWS V14.01,2013-03-28 13:39:00,
2013-03-28 08:44:00,37.8,30.9,30.29,ENE,73,0.0,0.0,76,0.00,,---,0.00,VWS V14.01,2013-03-28 13:44:00,
2013-03-28 08:49:00,38.1,30.9,30.30,ENE,74,0.0,0.0,75,0.00,,---,0.00,VWS V14.01,2013-03-28 13:49:00,
2013-03-28 08:54:00,38.0,30.8,30.30,East,85,0.0,0.0,75,0.00,,---,0.00,VWS V14.01,2013-03-28 13:54:00,
2013-03-28 08:59:00,38.4,31.2,30.31,East,82,0.0,0.0,75,0.00,,---,0.00,VWS V14.01,2013-03-28 13:59:00,
2013-03-28 09:04:00,39.0,31.1,30.30,North,359,3.0,3.0,73,0.00,,---,0.00,VWS V14.01,2013-03-28 14:04:00,
2013-03-28 09:09:00,39.2,31.3,30.31,NE,49,0.0,3.0,73,0.00,,---,0.00,VWS V14.01,2013-03-28 14:09:00,
2013-03-28 09:14:00,39.8,31.9,30.31,ENE,67,0.0,3.0,73,0.00,,---,0.00,VWS V14.01,2013-03-28 14:14:00,
2013-03-28 09:19:00,40.4,31.8,30.30,ENE,67,2.0,3.0,71,0.00,,---,0.00,VWS V14.01,2013-03-28 14:19:00,
2013-03-28 09:24:00,40.8,32.1,30.30,ENE,63,2.0,3.0,71,0.00,,---,0.00,VWS V14.01,2013-03-28 14:24:00,
2013-03-28 09:29:00,41.0,31.6,30.31,North,2,1.0,3.0,69,0.00,,---,0.00,VWS V14.01,2013-03-28 14:29:00,
2013-03-28 09:34:00,40.8,31.8,30.30,NE,41,1.0,3.0,70,0.00,,---,0.00,VWS V14.01,2013-03-28 14:34:00,
2013-03-28 09:39:00,40.9,32.2,30.30,NE,34,0.0,3.0,71,0.00,,---,0.00,VWS V14.01,2013-03-28 14:39:00,
2013-03-28 09:44:00,41.7,33.0,30.30,NE,35,1.0,3.0,71,0.00,,---,0.00,VWS V14.01,2013-03-28 14:44:00,
2013-03-28 09:49:00,42.3,33.2,30.30,NE,52,3.0,5.0,70,0.00,,---,0.00,VWS V14.01,2013-03-28 14:49:00,
2013-03-28 09:54:00,42.5,33.4,30.31,ENE,64,1.0,5.0,70,0.00,,---,0.00,VWS V14.01,2013-03-28 14:54:00,
2013-03-28 09:59:00,42.9,33.4,30.31,North,356,1.0,5.0,69,0.00,,---,0.00,VWS V14.01,2013-03-28 14:59:00,
2013-03-28 10:04:00,43.8,33.9,30.31,ENE,67,1.0,3.0,68,0.00,,---,0.00,VWS V14.01,2013-03-28 15:04:00,
2013-03-28 10:09:00,44.1,34.2,30.31,North,5,0.0,4.0,68,0.00,,---,0.00,VWS V14.01,2013-03-28 15:09:00,
2013-03-28 10:14:00,44.6,34.0,30.31,North,359,3.0,4.0,66,0.00,,---,0.00,VWS V14.01,2013-03-28 15:14:00,
2013-03-28 10:19:00,44.8,34.5,30.31,East,90,0.0,4.0,67,0.00,,---,0.00,VWS V14.01,2013-03-28 15:19:00,
2013-03-28 10:24:00,45.7,34.6,30.31,ENE,74,3.0,4.0,65,0.00,,---,0.00,VWS V14.01,2013-03-28 15:24:00,
2013-03-28 10:29:00,46.1,34.6,30.31,East,84,2.0,4.0,64,0.00,,---,0.00,VWS V14.01,2013-03-28 15:29:00,
2013-03-28 10:34:00,46.9,35.0,30.31,NNE,32,2.0,3.0,63,0.00,,---,0.00,VWS V14.01,2013-03-28 15:34:00,
2013-03-28 10:39:00,46.9,34.6,30.31,NE,45,2.0,3.0,62,0.00,,---,0.00,VWS V14.01,2013-03-28 15:39:00,
2013-03-28 10:44:00,47.2,34.9,30.31,ESE,104,1.0,3.0,62,0.00,,---,0.00,VWS V14.01,2013-03-28 15:44:00,
2013-03-28 10:49:00,48.0,35.2,30.31,ESE,106,0.0,3.0,61,0.00,,---,0.00,VWS V14.01,2013-03-28 15:49:00,
2013-03-28 10:54:00,48.8,35.1,30.31,North,4,1.0,3.0,59,0.00,,---,0.00,VWS V14.01,2013-03-28 15:54:00,
2013-03-28 10:59:00,48.3,35.1,30.31,SSE,159,1.0,4.0,60,0.00,,---,0.00,VWS V14.01,2013-03-28 15:59:00,
2013-03-28 11:04:00,48.4,35.2,30.31,SSW,210,2.0,2.0,60,0.00,,---,0.00,VWS V14.01,2013-03-28 16:04:00,
2013-03-28 11:09:00,49.1,35.4,30.31,North,356,2.0,3.0,59,0.00,,---,0.00,VWS V14.01,2013-03-28 16:09:00,
2013-03-28 11:14:00,49.9,34.8,30.31,NNW,345,1.0,3.0,56,0.00,,---,0.00,VWS V14.01,2013-03-28 16:14:00,
2013-03-28 11:19:00,50.4,35.3,30.30,NNE,16,3.0,8.0,56,0.00,,---,0.00,VWS V14.01,2013-03-28 16:19:00,
2013-03-28 11:24:00,50.9,34.9,30.30,ENE,59,4.0,8.0,54,0.00,,---,0.00,VWS V14.01,2013-03-28 16:24:00,
2013-03-28 11:29:00,51.3,35.2,30.30,NNW,348,6.0,8.0,54,0.00,,---,0.00,VWS V14.01,2013-03-28 16:29:00,
2013-03-28 11:34:00,51.2,34.7,30.30,ENE,69,1.0,3.0,53,0.00,,---,0.00,VWS V14.01,2013-03-28 16:34:00,
2013-03-28 11:39:00,51.6,35.0,30.30,North,356,2.0,8.0,53,0.00,,---,0.00,VWS V14.01,2013-03-28 16:39:00,
2013-03-28 11:44:00,52.5,35.4,30.30,WNW,301,5.0,8.0,52,0.00,,---,0.00,VWS V14.01,2013-03-28 16:44:00,
2013-03-28 11:49:00,52.8,34.2,30.30,NW,311,4.0,8.0,49,0.00,,---,0.00,VWS V14.01,2013-03-28 16:49:00,
2013-03-28 11:54:00,53.2,34.0,30.30,ENE,78,4.0,10.0,48,0.00,,---,0.00,VWS V14.01,2013-03-28 16:54:00,
2013-03-28 11:59:00,53.1,33.4,30.29,ENE,66,7.0,10.0,47,0.00,,---,0.00,VWS V14.01,2013-03-28 16:59:00,
2013-03-28 12:04:00,52.6,32.4,30.29,NNW,345,9.0,10.0,46,0.00,,---,0.00,VWS V14.01,2013-03-28 17:04:00,
2013-03-28 12:09:00,52.5,32.9,30.29,NE,38,5.0,10.0,47,0.00,,---,0.00,VWS V14.01,2013-03-28 17:09:00,
2013-03-28 12:14:00,53.2,33.5,30.29,NNE,21,7.0,11.0,47,0.00,,---,0.00,VWS V14.01,2013-03-28 17:14:00,
2013-03-28 12:19:00,53.6,33.3,30.29,NNE,16,7.0,11.0,46,0.00,,---,0.00,VWS V14.01,2013-03-28 17:19:00,
2013-03-28 12:24:00,54.0,32.6,30.29,ENE,61,6.0,11.0,44,0.00,,---,0.00,VWS V14.01,2013-03-28 17:24:00,
2013-03-28 12:29:00,54.2,33.3,30.29,NW,312,5.0,11.0,45,0.00,,---,0.00,VWS V14.01,2013-03-28 17:29:00,
2013-03-28 12:34:00,54.2,33.3,30.29,NE,44,8.0,9.0,45,0.00,,---,0.00,VWS V14.01,2013-03-28 17:34:00,
2013-03-28 12:39:00,54.3,33.4,30.28,North,2,6.0,9.0,45,0.00,,---,0.00,VWS V14.01,2013-03-28 17:39:00,
2013-03-28 12:44:00,54.4,33.5,30.28,NE,49,3.0,12.0,45,0.00,,---,0.00,VWS V14.01,2013-03-28 17:44:00,
2013-03-28 12:49:00,54.7,33.2,30.28,WNW,290,5.0,12.0,44,0.00,,---,0.00,VWS V14.01,2013-03-28 17:49:00,
2013-03-28 12:54:00,54.9,32.8,30.28,NNW,339,4.0,12.0,43,0.00,,---,0.00,VWS V14.01,2013-03-28 17:54:00,
2013-03-28 12:59:00,55.3,33.2,30.28,NNW,336,6.0,12.0,43,0.00,,---,0.00,VWS V14.01,2013-03-28 17:59:00,
2013-03-28 13:04:00,55.5,33.4,30.28,NNE,16,4.0,6.0,43,0.00,,---,0.00,VWS V14.01,2013-03-28 18:04:00,
2013-03-28 13:09:00,55.9,33.8,30.27,ENE,59,5.0,10.0,43,0.00,,---,0.00,VWS V14.01,2013-03-28 18:09:00,
2013-03-28 13:14:00,56.3,31.7,30.27,SW,235,3.0,11.0,39,0.00,,---,0.00,VWS V14.01,2013-03-28 18:14:00,
2013-03-28 13:19:00,56.7,32.7,30.27,NNE,30,4.0,11.0,40,0.00,,---,0.00,VWS V14.01,2013-03-28 18:19:00,
2013-03-28 13:24:00,57.5,32.1,30.27,North,7,6.0,11.0,38,0.00,,---,0.00,VWS V14.01,2013-03-28 18:24:00,
2013-03-28 13:29:00,57.4,32.7,30.27,NNW,346,4.0,12.0,39,0.00,,---,0.00,VWS V14.01,2013-03-28 18:29:00,
2013-03-28 13:34:00,57.4,33.3,30.27,NNW,334,3.0,5.0,40,0.00,,---,0.00,VWS V14.01,2013-03-28 18:34:00,
2013-03-28 13:39:00,57.3,31.9,30.26,North,2,4.0,9.0,38,0.00,,---,0.00,VWS V14.01,2013-03-28 18:39:00,
2013-03-28 13:44:00,57.6,32.2,30.26,NW,326,5.0,10.0,38,0.00,,---,0.00,VWS V14.01,2013-03-28 18:44:00,
2013-03-28 13:49:00,57.9,32.5,30.26,WNW,290,3.0,12.0,38,0.00,,---,0.00,VWS V14.01,2013-03-28 18:49:00,
2013-03-28 13:54:00,58.1,32.0,30.26,NW,326,4.0,12.0,37,0.00,,---,0.00,VWS V14.01,2013-03-28 18:54:00,
2013-03-28 13:59:00,57.9,30.4,30.26,East,97,2.0,12.0,35,0.00,,---,0.00,VWS V14.01,2013-03-28 18:59:00,
2013-03-28 14:04:00,58.5,31.7,30.26,West,274,4.0,5.0,36,0.00,,---,0.00,VWS V14.01,2013-03-28 19:04:00,
2013-03-28 14:09:00,58.6,31.8,30.26,North,3,6.0,7.0,36,0.00,,---,0.00,VWS V14.01,2013-03-28 19:09:00,
2013-03-28 14:14:00,59.0,32.1,30.25,ENE,58,6.0,10.0,36,0.00,,---,0.00,VWS V14.01,2013-03-28 19:14:00,
2013-03-28 14:19:00,59.6,31.9,30.25,NE,36,8.0,10.0,35,0.00,,---,0.00,VWS V14.01,2013-03-28 19:19:00,
2013-03-28 14:24:00,59.3,31.0,30.25,NE,41,5.0,10.0,34,0.00,,---,0.00,VWS V14.01,2013-03-28 19:24:00,
2013-03-28 14:29:00,59.5,31.1,30.25,North,353,4.0,10.0,34,0.00,,---,0.00,VWS V14.01,2013-03-28 19:29:00,
2013-03-28 14:34:00,59.4,31.0,30.25,North,355,5.0,10.0,34,0.00,,---,0.00,VWS V14.01,2013-03-28 19:34:00,
2013-03-28 14:39:00,59.4,31.0,30.24,North,2,4.0,10.0,34,0.00,,---,0.00,VWS V14.01,2013-03-28 19:39:00,
2013-03-28 14:44:00,59.6,31.2,30.24,NNE,33,5.0,11.0,34,0.00,,---,0.00,VWS V14.01,2013-03-28 19:44:00,
2013-03-28 14:49:00,60.0,30.1,30.24,East,88,7.0,11.0,32,0.00,,---,0.00,VWS V14.01,2013-03-28 19:49:00,
2013-03-28 14:54:00,60.4,31.2,30.24,NW,321,4.0,11.0,33,0.00,,---,0.00,VWS V14.01,2013-03-28 19:54:00,
2013-03-28 14:59:00,60.2,30.2,30.24,NNW,333,4.0,11.0,32,0.00,,---,0.00,VWS V14.01,2013-03-28 19:59:00,
2013-03-28 15:04:00,60.3,30.3,30.23,WNW,282,5.0,5.0,32,0.00,,---,0.00,VWS V14.01,2013-03-28 20:04:00,
2013-03-28 15:09:00,60.1,30.2,30.23,East,94,1.0,10.0,32,0.00,,---,0.00,VWS V14.01,2013-03-28 20:09:00,
2013-03-28 15:14:00,60.8,30.8,30.22,North,2,2.0,10.0,32,0.00,,---,0.00,VWS V14.01,2013-03-28 20:14:00,
2013-03-28 15:19:00,61.1,29.5,30.22,North,353,3.0,10.0,30,0.00,,---,0.00,VWS V14.01,2013-03-28 20:19:00,
2013-03-28 15:24:00,61.3,31.2,30.22,NNE,25,4.0,11.0,32,0.00,,---,0.00,VWS V14.01,2013-03-28 20:24:00,
2013-03-28 15:29:00,61.4,30.5,30.22,ESE,105,3.0,11.0,31,0.00,,---,0.00,VWS V14.01,2013-03-28 20:29:00,
2013-03-28 15:34:00,61.2,29.5,30.22,WNW,298,6.0,8.0,30,0.00,,---,0.00,VWS V14.01,2013-03-28 20:34:00,
2013-03-28 15:39:00,61.1,30.3,30.21,WNW,285,3.0,13.0,31,0.00,,---,0.00,VWS V14.01,2013-03-28 20:39:00,
2013-03-28 15:44:00,61.3,30.4,30.21,North,350,11.0,13.0,31,0.00,,---,0.00,VWS V14.01,2013-03-28 20:44:00,
2013-03-28 15:49:00,61.0,31.0,30.21,NNW,341,4.0,13.0,32,0.00,,---,0.00,VWS V14.01,2013-03-28 20:49:00,
2013-03-28 15:54:00,61.4,30.5,30.20,NNW,329,7.0,13.0,31,0.00,,---,0.00,VWS V14.01,2013-03-28 20:54:00,
2013-03-28 15:59:00,61.4,29.7,30.20,NW,317,7.0,14.0,30,0.00,,---,0.00,VWS V14.01,2013-03-28 20:59:00,
2013-03-28 16:04:00,61.1,28.6,30.20,NNW,336,8.0,8.0,29,0.00,,---,0.00,VWS V14.01,2013-03-28 21:04:00,
2013-03-28 16:09:00,61.4,29.7,30.20,NW,321,3.0,11.0,30,0.00,,---,0.00,VWS V14.01,2013-03-28 21:09:00,
2013-03-28 16:14:00,61.4,30.5,30.20,NW,319,7.0,11.0,31,0.00,,---,0.00,VWS V14.01,2013-03-28 21:14:00,
2013-03-28 16:19:00,61.4,28.9,30.20,NW,307,7.0,11.0,29,0.00,,---,0.00,VWS V14.01,2013-03-28 21:19:00,
2013-03-28 16:24:00,61.7,28.3,30.20,NNE,16,7.0,11.0,28,0.00,,---,0.00,VWS V14.01,2013-03-28 21:24:00,
2013-03-28 16:29:00,62.0,28.5,30.20,NNE,16,3.0,11.0,28,0.00,,---,0.00,VWS V14.01,2013-03-28 21:29:00,
2013-03-28 16:34:00,62.1,28.6,30.20,NNW,329,3.0,5.0,28,0.00,,---,0.00,VWS V14.01,2013-03-28 21:34:00,
2013-03-28 16:39:00,61.6,27.3,30.20,WNW,303,2.0,10.0,27,0.00,,---,0.00,VWS V14.01,2013-03-28 21:39:00,
2013-03-28 16:44:00,61.3,27.9,30.20,East,95,3.0,11.0,28,0.00,,---,0.00,VWS V14.01,2013-03-28 21:44:00,
2013-03-28 16:49:00,61.7,29.1,30.20,NW,305,13.0,13.0,29,0.00,,---,0.00,VWS V14.01,2013-03-28 21:49:00,
2013-03-28 16:54:00,61.3,27.9,30.20,NNE,20,6.0,13.0,28,0.00,,---,0.00,VWS V14.01,2013-03-28 21:54:00,
2013-03-28 16:59:00,60.9,27.6,30.20,NNE,13,3.0,13.0,28,0.00,,---,0.00,VWS V14.01,2013-03-28 21:59:00,
2013-03-28 17:04:00,60.7,28.3,30.20,NNE,16,2.0,4.0,29,0.00,,---,0.00,VWS V14.01,2013-03-28 22:04:00,
2013-03-28 17:09:00,60.6,28.2,30.20,NNW,330,3.0,10.0,29,0.00,,---,0.00,VWS V14.01,2013-03-28 22:09:00,
2013-03-28 17:14:00,60.4,28.0,30.20,ENE,67,4.0,10.0,29,0.00,,---,0.00,VWS V14.01,2013-03-28 22:14:00,
2013-03-28 17:19:00,60.7,28.3,30.20,East,81,3.0,10.0,29,0.00,,---,0.00,VWS V14.01,2013-03-28 22:19:00,
2013-03-28 17:24:00,61.4,26.2,30.20,East,98,3.0,10.0,26,0.00,,---,0.00,VWS V14.01,2013-03-28 22:24:00,
2013-03-28 17:29:00,61.5,26.3,30.21,North,358,2.0,10.0,26,0.00,,---,0.00,VWS V14.01,2013-03-28 22:29:00,
2013-03-28 17:34:00,61.3,27.1,30.21,NNE,28,2.0,3.0,27,0.00,,---,0.00,VWS V14.01,2013-03-28 22:34:00,
2013-03-28 17:39:00,61.1,26.0,30.21,North,9,6.0,10.0,26,0.00,,---,0.00,VWS V14.01,2013-03-28 22:39:00,
2013-03-28 17:44:00,60.6,26.5,30.21,North,353,2.0,10.0,27,0.00,,---,0.00,VWS V14.01,2013-03-28 22:44:00,
2013-03-28 17:49:00,60.7,26.5,30.21,WNW,283,1.0,10.0,27,0.00,,---,0.00,VWS V14.01,2013-03-28 22:49:00,
2013-03-28 17:54:00,61.0,25.9,30.21,WNW,298,5.0,10.0,26,0.00,,---,0.00,VWS V14.01,2013-03-28 22:54:00,
2013-03-28 17:59:00,61.2,27.0,30.21,NW,315,2.0,10.0,27,0.00,,---,0.00,VWS V14.01,2013-03-28 22:59:00,
2013-03-28 18:04:00,61.1,26.9,30.21,NNE,30,2.0,3.0,27,0.00,,---,0.00,VWS V14.01,2013-03-28 23:04:00,
2013-03-28 18:09:00,61.1,26.0,30.21,ENE,75,2.0,8.0,26,0.00,,---,0.00,VWS V14.01,2013-03-28 23:09:00,
2013-03-28 18:14:00,61.3,26.1,30.21,NNE,18,2.0,8.0,26,0.00,,---,0.00,VWS V14.01,2013-03-28 23:14:00,
2013-03-28 18:19:00,61.3,26.1,30.21,NNW,342,4.0,8.0,26,0.00,,---,0.00,VWS V14.01,2013-03-28 23:19:00,
2013-03-28 18:24:00,61.2,26.1,30.21,NE,50,2.0,8.0,26,0.00,,---,0.00,VWS V14.01,2013-03-28 23:24:00,
2013-03-28 18:29:00,61.0,26.8,30.21,East,85,2.0,8.0,27,0.00,,---,0.00,VWS V14.01,2013-03-28 23:29:00,
2013-03-28 18:34:00,60.9,27.6,30.21,North,350,1.0,3.0,28,0.00,,---,0.00,VWS V14.01,2013-03-28 23:34:00,
2013-03-28 18:39:00,60.7,27.4,30.21,NW,312,3.0,6.0,28,0.00,,---,0.00,VWS V14.01,2013-03-28 23:39:00,
2013-03-28 18:44:00,60.7,27.4,30.21,NNE,13,3.0,6.0,28,0.00,,---,0.00,VWS V14.01,2013-03-28 23:44:00,
2013-03-28 18:49:00,60.8,27.5,30.21,NE,45,3.0,6.0,28,0.00,,---,0.00,VWS V14.01,2013-03-28 23:49:00,
2013-03-28 18:54:00,60.6,27.3,30.21,NNW,331,3.0,7.0,28,0.00,,---,0.00,VWS V14.01,2013-03-28 23:54:00,
2013-03-28 18:59:00,60.5,27.3,30.21,North,3,2.0,7.0,28,0.00,,---,0.00,VWS V14.01,2013-03-28 23:59:00,
2013-03-28 19:04:00,60.3,27.9,30.21,North,355,3.0,5.0,29,0.00,,---,0.00,VWS V14.01,2013-03-29 00:04:00,
2013-03-28 19:09:00,60.1,27.8,30.21,NNW,334,2.0,7.0,29,0.00,,---,0.00,VWS V14.01,2013-03-29 00:09:00,
2013-03-28 19:14:00,60.2,27.9,30.22,NNE,16,2.0,7.0,29,0.00,,---,0.00,VWS V14.01,2013-03-29 00:14:00,
2013-03-28 19:19:00,60.3,27.9,30.22,NNW,346,0.0,7.0,29,0.00,,---,0.00,VWS V14.01,2013-03-29 00:19:00,
2013-03-28 19:24:00,60.2,27.0,30.22,North,359,1.0,7.0,28,0.00,,---,0.00,VWS V14.01,2013-03-29 00:24:00,
2013-03-28 19:29:00,59.9,27.6,30.22,NNE,26,0.0,7.0,29,0.00,,---,0.00,VWS V14.01,2013-03-29 00:29:00,
2013-03-28 19:34:00,59.5,27.2,30.22,NNW,329,1.0,2.0,29,0.00,,---,0.00,VWS V14.01,2013-03-29 00:34:00,
2013-03-28 19:39:00,59.1,27.7,30.22,North,356,2.0,6.0,30,0.00,,---,0.00,VWS V14.01,2013-03-29 00:39:00,
2013-03-28 19:44:00,58.7,28.2,30.22,North,350,2.0,6.0,31,0.00,,---,0.00,VWS V14.01,2013-03-29 00:44:00,
2013-03-28 19:49:00,58.3,27.8,30.22,North,2,1.0,6.0,31,0.00,,---,0.00,VWS V14.01,2013-03-29 00:49:00,
2013-03-28 19:54:00,58.0,28.3,30.23,NNW,336,2.0,6.0,32,0.00,,---,0.00,VWS V14.01,2013-03-29 00:54:00,
2013-03-28 19:59:00,57.6,28.7,30.23,WNW,293,1.0,6.0,33,0.00,,---,0.00,VWS V14.01,2013-03-29 00:59:00,
2013-03-28 20:04:00,57.2,29.1,30.23,WNW,296,1.0,1.0,34,0.00,,---,0.00,VWS V14.01,2013-03-29 01:04:00,
2013-03-28 20:09:00,56.9,28.8,30.23,WNW,299,1.0,4.0,34,0.00,,---,0.00,VWS V14.01,2013-03-29 01:09:00,
2013-03-28 20:14:00,56.6,29.3,30.23,WNW,287,1.0,4.0,35,0.00,,---,0.00,VWS V14.01,2013-03-29 01:14:00,
2013-03-28 20:19:00,56.4,29.1,30.23,WNW,303,2.0,6.0,35,0.00,,---,0.00,VWS V14.01,2013-03-29 01:19:00,
2013-03-28 20:24:00,56.1,29.5,30.23,WNW,303,3.0,6.0,36,0.00,,---,0.00,VWS V14.01,2013-03-29 01:24:00,
2013-03-28 20:29:00,55.8,29.3,30.24,WNW,298,2.0,6.0,36,0.00,,---,0.00,VWS V14.01,2013-03-29 01:29:00,
2013-03-28 20:34:00,55.5,29.0,30.24,NW,324,1.0,1.0,36,0.00,,---,0.00,VWS V14.01,2013-03-29 01:34:00,
2013-03-28 20:39:00,55.2,29.4,30.24,WNW,303,1.0,4.0,37,0.00,,---,0.00,VWS V14.01,2013-03-29 01:39:00,
2013-03-28 20:44:00,54.9,29.1,30.24,WNW,291,0.0,4.0,37,0.00,,---,0.00,VWS V14.01,2013-03-29 01:44:00,
2013-03-28 20:49:00,54.7,29.6,30.24,NW,324,2.0,5.0,38,0.00,,---,0.00,VWS V14.01,2013-03-29 01:49:00,
2013-03-28 20:54:00,54.2,30.4,30.24,NW,319,2.0,6.0,40,0.00,,---,0.00,VWS V14.01,2013-03-29 01:54:00,
2013-03-28 20:59:00,53.6,31.1,30.24,NW,324,3.0,8.0,42,0.00,,---,0.00,VWS V14.01,2013-03-29 01:59:00,
2013-03-28 21:04:00,53.0,31.1,30.24,West,267,4.0,6.0,43,0.00,,---,0.00,VWS V14.01,2013-03-29 02:04:00,
2013-03-28 21:09:00,52.4,31.7,30.24,North,4,5.0,7.0,45,0.00,,---,0.00,VWS V14.01,2013-03-29 02:09:00,
2013-03-28 21:14:00,51.8,31.7,30.24,West,280,2.0,9.0,46,0.00,,---,0.00,VWS V14.01,2013-03-29 02:14:00,
2013-03-28 21:19:00,51.3,32.3,30.24,NNE,17,4.0,9.0,48,0.00,,---,0.00,VWS V14.01,2013-03-29 02:19:00,
2013-03-28 21:24:00,50.9,32.4,30.24,WNW,300,2.0,9.0,49,0.00,,---,0.00,VWS V14.01,2013-03-29 02:24:00,
2013-03-28 21:29:00,50.6,32.7,30.25,NNW,334,2.0,9.0,50,0.00,,---,0.00,VWS V14.01,2013-03-29 02:29:00,
2013-03-28 21:34:00,50.4,33.0,30.25,WNW,294,4.0,5.0,51,0.00,,---,0.00,VWS V14.01,2013-03-29 02:34:00,
2013-03-28 21:39:00,50.2,32.8,30.25,NNE,23,4.0,6.0,51,0.00,,---,0.00,VWS V14.01,2013-03-29 02:39:00,
2013-03-28 21:44:00,50.0,33.1,30.25,NNW,343,2.0,6.0,52,0.00,,---,0.00,VWS V14.01,2013-03-29 02:44:00,
2013-03-28 21:49:00,49.7,32.8,30.25,NW,311,3.0,7.0,52,0.00,,---,0.00,VWS V14.01,2013-03-29 02:49:00,
2013-03-28 21:54:00,49.4,33.0,30.26,WNW,300,6.0,7.0,53,0.00,,---,0.00,VWS V14.01,2013-03-29 02:54:00,
2013-03-28 21:59:00,49.1,33.2,30.25,NNW,344,2.0,7.0,54,0.00,,---,0.00,VWS V14.01,2013-03-29 02:59:00,
2013-03-28 22:04:00,48.9,33.0,30.26,NNW,344,3.0,6.0,54,0.00,,---,0.00,VWS V14.01,2013-03-29 03:04:00,
2013-03-28 22:09:00,48.7,33.3,30.26,NNW,329,2.0,6.0,55,0.00,,---,0.00,VWS V14.01,2013-03-29 03:09:00,
2013-03-28 22:14:00,48.5,33.1,30.26,West,270,4.0,6.0,55,0.00,,---,0.00,VWS V14.01,2013-03-29 03:14:00,
2013-03-28 22:19:00,48.3,33.3,30.26,North,4,2.0,6.0,56,0.00,,---,0.00,VWS V14.01,2013-03-29 03:19:00,
2013-03-28 22:24:00,48.1,33.2,30.26,NNW,336,4.0,6.0,56,0.00,,---,0.00,VWS V14.01,2013-03-29 03:24:00,
2013-03-28 22:29:00,47.9,33.0,30.26,NNW,339,1.0,7.0,56,0.00,,---,0.00,VWS V14.01,2013-03-29 03:29:00,
2013-03-28 22:34:00,47.7,32.8,30.26,North,2,2.0,3.0,56,0.00,,---,0.00,VWS V14.01,2013-03-29 03:34:00,
2013-03-28 22:39:00,47.6,32.7,30.26,North,4,1.0,9.0,56,0.00,,---,0.00,VWS V14.01,2013-03-29 03:39:00,
2013-03-28 22:44:00,47.5,32.6,30.26,North,356,7.0,9.0,56,0.00,,---,0.00,VWS V14.01,2013-03-29 03:44:00,
2013-03-28 22:49:00,47.3,32.8,30.26,North,349,4.0,9.0,57,0.00,,---,0.00,VWS V14.01,2013-03-29 03:49:00,
2013-03-28 22:54:00,47.2,32.8,30.26,NW,324,3.0,9.0,57,0.00,,---,0.00,VWS V14.01,2013-03-29 03:54:00,
2013-03-28 22:59:00,47.1,32.7,30.26,North,353,3.0,9.0,57,0.00,,---,0.00,VWS V14.01,2013-03-29 03:59:00,
2013-03-28 23:00:00,47.0,32.6,30.26,NNW,343,4.0,9.0,57,0.00,,---,0.00,VWS V14.01,2013-03-29 04:00:00,
2013-03-28 23:05:00,46.9,32.5,30.26,WNW,300,3.0,6.0,57,0.00,,---,0.00,VWS V14.01,2013-03-29 04:05:00,
2013-03-28 23:10:00,46.9,32.5,30.26,NNW,334,4.0,9.0,57,0.00,,---,0.00,VWS V14.01,2013-03-29 04:10:00,
2013-03-28 23:15:00,46.9,32.5,30.26,NNW,343,6.0,10.0,57,0.00,,---,0.00,VWS V14.01,2013-03-29 04:15:00,
2013-03-28 23:20:00,46.9,32.5,30.26,NW,314,4.0,10.0,57,0.00,,---,0.00,VWS V14.01,2013-03-29 04:20:00,
2013-03-28 23:25:00,46.8,32.4,30.26,NW,319,6.0,10.0,57,0.00,,---,0.00,VWS V14.01,2013-03-29 04:25:00,
2013-03-28 23:30:00,46.8,32.4,30.26,NNW,347,1.0,10.0,57,0.00,,---,0.00,VWS V14.01,2013-03-29 04:30:00,
2013-03-28 23:35:00,46.6,32.6,30.26,NW,325,7.0,7.0,58,0.00,,---,0.00,VWS V14.01,2013-03-29 04:35:00,
2013-03-28 23:40:00,46.4,32.4,30.26,North,2,2.0,9.0,58,0.00,,---,0.00,VWS V14.01,2013-03-29 04:40:00,
2013-03-28 23:45:00,46.4,32.4,30.26,NNW,344,4.0,10.0,58,0.00,,---,0.00,VWS V14.01,2013-03-29 04:45:00,
2013-03-28 23:50:00,46.3,32.3,30.26,North,2,5.0,11.0,58,0.00,,---,0.00,VWS V14.01,2013-03-29 04:50:00,
2013-03-28 23:55:00,46.3,32.3,30.26,NW,314,4.0,12.0,58,0.00,,---,0.00,VWS V14.01,2013-03-29 04:55:00,